Volver al catálogo

COSMOS 860 COOLANT

ActivoLEO
NORAD 29195·DEBRIS·🇷🇺 Russia

Lanzado Oct 17, 1976 desde Baikonur Cosmodrome

Loading…

Próximos Pases (próximas 24 horas)

TLE

EnvejeciendoSource: Space-Track

Época: Sep 11, 2026, 06:52 UTC

1 29195U 76103H   26254.28646960  .00000096  00000-0  15770-3 0  9991
2 29195  64.6973 135.7647 0052048 178.5055 181.6169 13.87326719651614

Sigue COSMOS 860 COOLANT en tiempo real con AllMySat

Download on the App Store